Wind_Speed
17 17 16 15 15 15 16 17 17 17 17 17 17 17 18 20 21 22 23 23 23 23 23 22 21 22 23 23 24 25 25 25 26 26 25 24 24 24 25 25 26 26
16 15 15 15 15 16 16 16 17 19 19 20 20 21 21 21 22 23 24 24 24 24 24 23 23 23 24 24 25 26 26 26 27 27 27 26 25 25 25 26 27 27
15 15 16 16 16 16 16 16 18 20 22 22 23 24 24 24 25 25 26 25 24 24 25 25 24 24 24 25 25 25 26 27 27 27 28 28 28 27 27 27 28 29
15 16 17 17 17 16 16 17 19 22 23 25 26 26 27 28 28 28 27 26 24 24 26 27 27 25 25 25 26 25 25 26 26 27 28 28 29 29 28 28 29 30
16 16 17 18 18 18 17 19 21 23 24 26 27 28 29 31 33 32 31 29 29 27 27 28 27 27 26 27 27 27 26 26 26 27 28 28 29 29 29 29 30 31
15 16 17 17 18 18 19 20 22 22 23 26 28 30 32 34 36 37 36 35 35 33 31 31 30 29 29 30 31 30 29 28 27 27 27 28 29 29 30 31 31 32
15 17 17 17 19 20 20 21 22 22 24 28 30 31 33 34 36 37 39 40 41 39 37 36 34 33 33 33 33 34 33 32 30 29 28 28 29 30 31 32 32 33
15 17 18 19 21 21 21 22 24 25 27 29 30 31 32 33 34 36 38 41 43 44 43 42 39 38 39 38 38 37 37 36 35 33 33 32 32 32 33 33 32 33
15 17 19 20 22 21 21 23 24 24 26 28 29 30 31 32 34 37 39 41 45 46 44 45 44 40 39 39 40 39 38 38 38 37 37 37 36 35 34 34 33 33
14 17 19 20 21 21 21 24 25 24 25 27 28 29 32 34 36 40 40 41 45 45 44 45 44 38 36 39 41 41 39 38 38 38 39 39 38 36 35 34 33 33
13 15 17 17 18 21 24 27 29 28 27 27 28 30 32 34 33 34 34 34 38 41 39 38 36 33 35 41 43 42 40 39 38 39 40 40 39 37 36 34 32 32
11 12 14 15 18 21 24 27 28 29 30 28 29 31 32 33 33 32 32 31 31 31 26 24 24 26 32 37 40 41 42 42 40 40 41 41 41 39 37 35 33 32
11 12 15 20 26 27 26 28 29 29 31 31 31 30 31 34 36 34 31 27 25 23 20 20 24 29 33 36 38 40 43 45 44 42 42 41 41 39 37 37 35 32
14 16 20 26 31 31 31 34 34 35 37 37 34 32 32 36 36 33 30 27 26 26 26 29 33 36 38 40 41 41 43 46 48 46 44 42 40 38 38 38 37 35
19 21 26 29 32 32 33 35 37 39 39 36 34 35 35 36 35 34 33 32 31 31 31 34 36 38 40 43 45 44 42 44 48 48 47 45 41 38 38 38 38 37
24 27 30 31 33 34 34 34 33 34 33 32 33 35 35 36 37 38 38 35 33 32 33 34 36 38 40 41 43 44 42 41 43 44 45 46 43 39 38 39 39 40
28 31 32 33 35 35 36 36 33 31 31 33 34 35 35 36 37 38 39 38 36 35 35 36 38 38 37 37 39 41 41 39 38 37 39 42 43 40 39 40 42 44
31 33 34 35 36 37 38 40 38 35 34 36 37 37 37 37 36 36 37 37 38 38 38 38 38 35 34 36 39 40 39 37 35 36 36 36 39 40 40 42 44 45
34 36 36 38 39 39 40 42 42 40 39 40 41 43 43 42 39 36 35 35 36 37 38 39 37 35 34 36 38 37 36 35 34 35 35 34 35 39 42 43 44 44
37 38 39 41 42 42 42 43 44 44 44 44 45 46 48 48 46 41 38 37 36 36 38 37 36 34 34 35 35 34 34 33 31 30 30 31 32 35 39 41 41 41
39 41 42 43 43 43 44 44 45 46 46 47 48 49 49 50 49 46 42 39 37 37 37 36 34 33 32 32 32 32 33 32 29 26 25 26 29 32 34 36 36 37
42 44 44 44 43 44 44 45 46 47 49 50 51 52 51 51 51 48 44 40 38 38 37 35 33 32 30 29 30 31 31 32 31 28 27 27 28 28 30 31 32 34
42 44 44 43 43 44 44 46 47 49 50 52 54 54 53 52 52 49 44 40 38 38 36 34 32 31 30 29 30 29 29 30 30 28 26 26 26 27 29 31 32 33
41 42 43 44 45 45 46 47 49 51 53 55 56 56 54 53 52 49 44 40 37 37 35 32 31 31 31 31 31 29 27 25 23 22 22 24 28 31 33 34 35 35
41 43 45 47 48 48 49 50 51 54 56 58 59 57 53 52 52 49 43 39 36 34 32 31 31 31 31 31 30 27 25 22 20 21 25 30 32 34 35 35 35 34
43 45 48 49 50 50 51 52 54 57 58 60 59 54 49 49 50 47 41 38 35 32 31 30 31 31 31 30 27 24 23 23 24 28 33 36 36 36 36 35 33 32
Wind_Direction
278 282 285 288 291 293 295 297 297 297 294 291 290 292 294 296 295 293 291 291 292 292 291 290 289 289 287 284 281 279 276 274 271 269 269 270 272 276 281 285 287 287
278 280 283 286 288 290 293 295 297 296 295 293 291 293 294 294 293 292 291 289 289 289 288 287 286 285 285 283 281 280 277 274 272 271 271 271 272 275 279 283 286 287
275 278 281 283 284 285 287 291 295 297 299 299 300 302 303 301 300 298 295 291 289 290 290 289 286 282 282 282 282 282 279 275 273 273 274 273 274 275 278 282 286 287
274 277 279 280 282 284 287 292 298 301 304 306 307 309 308 307 306 305 300 295 293 292 292 291 288 283 280 280 281 282 280 277 275 275 274 274 273 275 278 281 284 286
272 274 277 281 285 289 293 297 300 304 309 311 310 308 307 304 303 302 302 298 294 292 291 290 289 287 285 282 281 280 279 277 276 275 274 273 271 272 275 278 281 283
269 272 277 283 290 297 301 301 301 303 308 310 309 307 305 302 300 299 299 295 292 292 291 288 287 287 288 285 281 278 277 275 274 274 274 273 272 272 272 273 276 279
274 280 286 291 295 299 303 303 301 300 302 305 305 304 303 304 304 302 298 293 291 290 291 288 284 284 288 288 284 279 275 272 270 271 272 273 274 274 272 271 271 273
277 285 291 293 293 295 301 306 305 300 298 300 301 302 303 306 308 307 303 298 293 291 290 288 283 283 287 289 287 283 277 272 268 268 269 271 274 275 273 270 269 270
277 283 287 288 291 294 299 302 301 298 296 298 301 304 307 309 310 309 304 298 293 291 292 291 287 283 285 290 290 285 280 275 270 268 269 270 272 274 274 271 268 268
279 284 288 291 295 298 295 289 287 290 294 299 304 309 314 316 314 311 303 293 290 292 294 294 290 284 285 294 294 287 280 277 274 271 271 271 272 274 274 271 269 269
279 288 295 299 299 294 288 282 281 284 289 296 305 308 313 317 317 316 312 305 301 300 297 297 294 288 289 296 295 286 278 276 274 273 272 272 274 275 273 272 272 272
285 298 301 297 287 279 280 284 285 285 286 296 306 306 308 316 318 317 318 315 311 308 308 311 310 304 300 300 297 288 279 275 273 273 273 273 274 274 273 272 274 275
292 304 298 287 279 276 281 286 287 287 289 297 305 306 311 319 319 320 322 320 315 312 314 319 322 319 314 309 304 295 284 278 274 273 273 274 275 276 274 272 273 275
290 294 288 281 281 283 286 286 287 292 295 297 300 303 313 321 322 324 327 325 319 313 307 306 311 316 316 313 309 301 290 281 276 273 272 272 273 275 276 274 273 272
284 285 283 283 287 293 295 293 294 298 300 303 305 308 316 324 326 326 326 323 321 318 313 308 306 307 309 309 306 302 295 286 277 273 272 270 271 274 275 276 274 271
283 283 284 288 296 304 306 302 301 305 308 314 319 319 322 326 326 324 321 321 320 319 318 314 309 306 304 304 303 301 298 290 281 276 276 273 272 274 276 276 275 273
285 286 288 293 299 305 305 302 305 311 314 316 320 322 324 324 322 319 317 318 319 319 318 316 314 308 301 302 305 302 299 295 284 278 280 280 277 275 276 276 276 276
291 292 292 294 295 297 298 300 305 311 312 312 313 317 320 320 316 314 313 316 318 320 319 318 317 311 302 304 309 306 303 300 289 277 276 280 278 274 274 274 274 274
296 296 293 293 294 297 301 304 308 311 313 312 312 314 318 320 318 314 314 315 316 317 317 317 318 314 307 307 309 308 304 301 293 282 277 276 277 275 274 275 274 275
300 299 298 299 300 302 304 306 308 311 312 311 312 314 318 321 319 317 316 316 316 316 315 315 317 315 312 310 308 307 304 296 291 288 284 280 278 277 278 279 281 282
306 306 305 305 304 305 306 306 308 308 308 308 309 311 314 318 318 316 315 315 315 315 315 315 316 316 315 313 311 308 303 294 287 287 287 284 281 282 284 287 288 289
306 307 307 306 305 305 305 306 307 307 306 306 306 306 309 314 315 313 312 313 313 314 314 315 316 317 315 314 314 310 302 293 286 283 284 284 285 287 290 292 292 291
303 304 304 304 303 302 302 303 303 304 305 305 305 304 305 307 311 311 309 310 310 311 312 315 316 317 316 314 314 311 303 294 288 285 285 287 290 291 291 293 296 297
299 301 301 300 300 299 299 299 299 301 302 301 301 302 300 302 306 307 305 306 308 308 311 314 316 316 316 315 313 308 299 289 282 283 289 294 294 293 293 294 297 299
295 298 299 298 297 296 295 295 296 297 297 296 298 298 296 298 302 303 302 303 305 305 309 313 314 314 314 312 308 302 291 279 275 284 296 299 298 295 294 294 296 298
291 295 298 298 297 295 293 293 293 293 293 295 297 296 294 296 299 299 299 301 302 303 308 311 312 312 311 307 302 295 285 280 284 294 299 301 299 296 295 296 298 299
Height
5909 5909 5909 5908 5908 5908 5907 5906 5906 5905 5904 5903 5902 5900 5899 5898 5897 5896 5896 5895 5894 5893 5892 5891 5890 5889 5888 5888 5888 5888 5888 5889 5889 5888 5888 5888 5888 5887 5886 5885 5884 5883
5906 5906 5906 5906 5905 5905 5904 5903 5903 5902 5901 5900 5898 5898 5897 5896 5895 5893 5893 5892 5891 5891 5890 5888 5887 5886 5886 5885 5885 5885 5885 5885 5884 5884 5884 5884 5884 5883 5883 5882 5881 5880
5904 5904 5903 5903 5902 5902 5902 5901 5901 5900 5898 5897 5896 5895 5895 5894 5893 5892 5890 5889 5889 5888 5887 5886 5885 5884 5883 5882 5882 5881 5881 5881 5880 5880 5880 5880 5879 5879 5878 5878 5877 5876
5901 5901 5901 5900 5900 5900 5899 5899 5899 5898 5897 5896 5895 5894 5893 5892 5891 5890 5889 5888 5887 5886 5885 5884 5883 5882 5880 5880 5879 5878 5878 5877 5876 5876 5876 5875 5875 5874 5873 5873 5872 5871
5899 5899 5898 5898 5898 5898 5897 5897 5896 5896 5895 5894 5892 5892 5891 5889 5888 5888 5887 5887 5885 5884 5882 5881 5880 5879 5878 5877 5876 5875 5874 5873 5873 5872 5871 5871 5870 5870 5869 5869 5868 5867
5896 5896 5896 5896 5896 5895 5895 5895 5894 5893 5892 5891 5890 5889 5888 5886 5885 5884 5884 5883 5882 5881 5879 5878 5877 5876 5875 5874 5873 5872 5871 5870 5869 5868 5867 5867 5866 5866 5865 5864 5864 5863
5894 5894 5894 5893 5893 5893 5892 5892 5891 5891 5890 5889 5888 5886 5885 5884 5883 5881 5880 5879 5877 5876 5875 5874 5873 5872 5871 5870 5869 5868 5867 5866 5865 5864 5863 5863 5862 5862 5861 5860 5859 5858
5891 5891 5891 5890 5890 5890 5890 5890 5889 5888 5887 5886 5885 5884 5882 5881 5880 5878 5876 5874 5872 5871 5870 5869 5868 5867 5867 5866 5864 5863 5862 5862 5861 5860 5859 5859 5858 5857 5856 5855 5854 5854
5889 5888 5888 5888 5888 5888 5888 5887 5886 5885 5884 5883 5882 5881 5880 5878 5877 5874 5872 5869 5867 5865 5864 5864 5863 5863 5862 5861 5859 5858 5857 5856 5856 5855 5855 5854 5853 5852 5851 5850 5850 5849
5886 5886 5886 5885 5885 5885 5884 5882 5881 5881 5881 5880 5879 5879 5877 5875 5873 5870 5866 5863 5861 5859 5859 5858 5858 5859 5858 5856 5854 5852 5851 5851 5850 5850 5849 5849 5848 5847 5846 5845 5845 5844
5884 5884 5883 5883 5882 5881 5879 5877 5877 5877 5877 5877 5876 5876 5874 5872 5869 5866 5862 5859 5857 5854 5853 5853 5853 5854 5854 5851 5848 5847 5846 5845 5844 5844 5843 5843 5843 5842 5841 5841 5840 5839
5883 5882 5881 5880 5878 5876 5875 5874 5875 5875 5874 5874 5874 5873 5871 5868 5866 5864 5861 5858 5855 5852 5851 5851 5850 5850 5849 5847 5844 5841 5840 5839 5838 5838 5837 5837 5837 5837 5836 5836 5835 5834
5880 5879 5878 5876 5872 5871 5873 5872 5872 5872 5871 5871 5871 5870 5868 5865 5863 5861 5858 5856 5854 5852 5850 5849 5847 5846 5845 5842 5838 5836 5834 5833 5832 5832 5832 5832 5832 5832 5831 5830 5830 5830
5877 5876 5873 5870 5867 5869 5871 5870 5870 5870 5869 5868 5867 5866 5865 5863 5860 5858 5855 5853 5852 5850 5848 5845 5843 5842 5840 5836 5833 5831 5829 5828 5827 5826 5826 5826 5827 5827 5826 5826 5826 5825
5874 5871 5867 5866 5865 5867 5868 5869 5870 5869 5866 5864 5863 5861 5861 5859 5857 5854 5852 5850 5848 5846 5844 5842 5840 5838 5835 5832 5829 5827 5825 5823 5822 5820 5820 5820 5821 5822 5821 5821 5821 5821
5869 5866 5864 5864 5864 5864 5864 5866 5867 5865 5862 5860 5859 5858 5856 5855 5852 5850 5848 5847 5845 5843 5841 5838 5836 5834 5831 5828 5825 5822 5820 5818 5817 5815 5815 5815 5816 5816 5816 5816 5816 5816
5865 5864 5863 5863 5863 5862 5860 5859 5860 5860 5858 5857 5856 5855 5854 5852 5850 5848 5845 5843 5841 5839 5837 5835 5832 5829 5826 5823 5820 5818 5815 5813 5812 5810 5810 5810 5811 5811 5811 5810 5810 5809
5864 5863 5863 5861 5860 5858 5857 5854 5854 5855 5854 5853 5852 5852 5851 5850 5848 5845 5842 5839 5837 5834 5832 5830 5828 5824 5821 5818 5815 5813 5810 5808 5807 5805 5804 5804 5805 5805 5805 5805 5803 5802
5862 5862 5861 5859 5856 5855 5853 5851 5850 5849 5848 5848 5846 5846 5845 5844 5843 5840 5838 5836 5833 5830 5828 5826 5823 5820 5818 5815 5811 5808 5806 5804 5802 5800 5798 5798 5799 5800 5800 5799 5799 5798
5860 5859 5858 5856 5854 5852 5850 5848 5846 5844 5843 5842 5841 5840 5838 5837 5835 5834 5832 5830 5828 5826 5823 5821 5819 5816 5814 5811 5808 5805 5802 5800 5798 5796 5795 5795 5795 5795 5795 5794 5794 5793
5856 5854 5853 5851 5850 5848 5846 5845 5844 5842 5840 5838 5837 5836 5834 5831 5829 5828 5826 5825 5823 5821 5818 5816 5814 5812 5809 5807 5804 5801 5799 5797 5796 5794 5792 5791 5791 5791 5790 5789 5788 5787
5851 5850 5848 5846 5845 5843 5842 5841 5840 5838 5836 5835 5833 5831 5829 5827 5825 5823 5821 5820 5818 5816 5814 5812 5809 5807 5804 5802 5799 5798 5796 5794 5793 5791 5790 5789 5788 5787 5786 5785 5784 5782
5847 5845 5843 5841 5840 5839 5838 5836 5835 5833 5831 5829 5828 5826 5825 5823 5821 5819 5817 5815 5813 5812 5809 5807 5804 5802 5800 5797 5795 5793 5792 5790 5789 5788 5787 5786 5785 5784 5782 5781 5780 5778
5842 5840 5838 5837 5835 5833 5832 5831 5829 5827 5825 5823 5822 5821 5820 5818 5816 5814 5812 5811 5809 5807 5805 5802 5799 5796 5794 5792 5791 5789 5788 5787 5786 5785 5784 5783 5782 5781 5779 5777 5776 5774
5837 5836 5834 5831 5830 5828 5826 5824 5822 5821 5819 5817 5816 5815 5814 5813 5811 5808 5807 5806 5804 5802 5799 5797 5794 5791 5789 5787 5786 5785 5784 5783 5783 5782 5781 5780 5779 5777 5775 5772 5770 5768
5832 5831 5828 5826 5823 5821 5819 5817 5815 5814 5812 5810 5809 5808 5808 5807 5805 5803 5801 5800 5798 5796 5794 5792 5790 5787 5785 5784 5784 5783 5782 5781 5779 5778 5776 5775 5774 5771 5769 5766 5764 5762